Location: Unspecified
(0.0000°N, 0.0000°E)
Time: 18:10:34
(UTC+00:00)

Vanguard 1 - Pass Details

Date: 04 October 2020
Orbit: 650 x 3833 km, 34.3° (Epoch: 26 October)

Event Time Altitude Azimuth Distance (km) Brightness Sun altitude
Rises 10:03:15 0° 227° (SW) 6,491 14.1 63.3°
Reaches altitude 10° 10:09:44 10° 209° (SSW) 6,024 14.1 64.9°
Maximum altitude 10:22:31 19° 170° (S) 5,966 14.4 68.0°
Drops below altitude 10° 10:37:04 10° 131° (SE) 6,923 14.8 71.6°
Sets 10:45:30 0° 114° (ESE) 7,750 14.9 73.6°
